Location: Invercargill
(46.4000°S, 168.3500°E)
Time: 02:21:35
(UTC+13:00)

Explorer 7 - Visible Passes

Search period start: 23 October 2020 00:00
Search period end: 02 November 2020 00:00
Orbit: 484 x 679 km, 50.3° (Epoch: 22 October)

Date Brightness Start Highest point End Pass type
(mag) Time Alt. Az. Time Alt. Az. Time Alt. Az.
23 Oct 8.8 04:52:30 16° N 04:55:13 26° NE 04:59:12 10° E visible
24 Oct 8.2 04:57:00 21° NNW 04:59:45 37° NE 05:04:11 10° ESE visible
25 Oct 9.6 03:25:09 13° ENE 03:25:09 13° ENE 03:26:46 10° ENE visible
25 Oct 7.6 05:01:27 23° NW 05:04:20 53° NNE 05:09:02 10° ESE visible
26 Oct 9.1 03:29:31 20° NE 03:29:31 20° NE 03:32:27 10° E visible
26 Oct 7.3 05:05:49 22° NW 05:08:59 72° NNE 05:13:48 10° ESE visible
27 Oct 8.5 03:33:50 29° NE 03:33:50 29° NE 03:37:36 10° E visible
27 Oct 7.2 05:10:07 19° WNW 05:13:41 88° SSW 05:18:31 10° ESE visible
28 Oct 7.9 03:38:06 42° NE 03:38:06 42° NE 03:42:31 10° ESE visible
28 Oct 7.4 05:14:22 15° WNW 05:18:26 72° SSW 05:23:15 10° ESE visible
29 Oct 7.3 03:42:18 58° NNE 03:42:30 58° NNE 03:47:20 10° ESE visible
29 Oct 7.6 05:18:35 11° W 05:23:13 62° SSW 05:28:00 10° ESE visible
30 Oct 9.7 02:10:11 13° E 02:10:11 13° E 02:10:51 10° E visible
30 Oct 7.1 03:46:28 64° NW 03:47:10 78° NNE 03:52:04 10° ESE visible
30 Oct 7.8 05:23:09 10° W 05:28:02 56° S 05:32:46 10° ESE visible
31 Oct 9.3 02:14:18 19° E 02:14:18 19° E 02:15:54 10° ESE visible
31 Oct 7.2 03:50:35 50° WNW 03:51:52 83° SSW 03:56:48 10° ESE visible
31 Oct 7.9 05:28:00 10° W 05:32:52 53° S 05:37:34 10° ESE visible
01 Nov 8.8 02:18:23 26° E 02:18:23 26° E 02:20:47 10° ESE visible
01 Nov 7.4 03:54:39 36° W 03:56:37 69° SSW 04:01:31 10° ESE visible
01 Nov 7.9 05:32:50 10° WSW 05:37:42 54° S 05:42:23 10° E visible
